Location: Poughquag
(41.6090°N, 73.6820°W)
Time: 22:13:40
(UTC-05:00)

N. Korean satellite - Pass Details

Date: 30 January 2021
Orbit: 451 x 503 km, 97.2° (Epoch: 24 February)

Event Time Altitude Azimuth Distance (km) Brightness Sun altitude
Rises 05:20:49 0° 12° (NNE) 2,486 10.2 -20.2°
Reaches altitude 10° 05:22:53 10° 13° (NNE) 1,602 9.3 -19.9°
Maximum altitude 05:26:19 85° 103° (ESE) 460 6.4 -19.2°
Drops below altitude 10° 05:29:42 10° 191° (S) 1,577 9.1 -18.6°
Sets 05:31:42 0° 192° (SSW) 2,444 10.1 -18.2°
